Location: Ehingen
(48.2869°N, 9.7112°E)
Time: 17:03:12
(UTC+01:00)

ISS - Pass Details

Date: 30 March 2017
Orbit: 399 x 409 km, 51.6° (Epoch: 25 March)

Event Time Altitude Azimuth Distance (km) Brightness Sun altitude
Rises 20:47:19 0° 231° (SW) 2,303 0.5 -10.3°
Reaches altitude 10° 20:49:25 10° 226° (SW) 1,449 -0.6 -10.6°
Maximum altitude 20:52:34 50° 150° (SSE) 519 -3.6 -11.1°
Enters shadow 20:55:03 15° 77° (ENE) 1,183 -2.0 -11.5°
